This demonstration page uses our WeatherBlox Daily Observations layout. Learn more.

Left ArrowRight Arrow

34.74481, -87.66753

Hourly Observations for July 3, 2020

Temp ( °F °C ) Dew Point ( °F °C ) Humidity (%) Winds ( mph kmh ) Pressure ( in mb ) Visibility ( mi km ) Precip ( " mm )
12:53 am 00:53 Clear 77 25 74 23.3 90 90 Calm 29.94 1014 10 16 0.00 0.00
1:53 am 01:53 Clear 76 24.4 73 22.8 91 91 NNW 3 6 29.94 1014 10 16 0.00 0.00
2:53 am 02:53 Clear 76 24.4 73 22.8 91 91 WNW 3 6 29.93 1014 7 11 0.00 0.00
3:53 am 03:53 Clear 75 23.9 73 22.8 94 94 Calm 29.92 1013 9 14 0.00 0.00
4:25 am 04:25 Clear with Mist and Fog 74 23.3 72 22.2 94 94 Calm 29.92 1013 2 3 0.00 0.00
4:36 am 04:36 Clear with Mist and Fog 74 23.3 72 22.2 94 94 Calm 29.92 1013 4 6 0.00 0.00
4:53 am 04:53 Clear with Mist and Fog 75 23.9 72 22.2 90 90 Calm 29.92 1013 6 10 0.00 0.00
5:53 am 05:53 Sunny with Mist and Fog 74 23.3 72 22.2 94 94 Calm 29.94 1014 5 8 0.00 0.00
6:53 am 06:53 Sunny 78 25.6 74 23.3 87 87 NW 3 6 29.95 1014 8 13 0.00 0.00
7:53 am 07:53 Sunny 81 27.2 74 23.3 79 79 NNW 3 6 29.97 1015 10 16 0.00 0.00
8:53 am 08:53 Sunny 83 28.3 75 23.9 77 77 Calm 29.97 1015 10 16 0.00 0.00
9:53 am 09:53 Sunny 86 30 74 23.3 67 67 VRB 3 6 29.96 1015 10 16 0.00 0.00
10:53 am 10:53 Sunny 89 31.7 74 23.3 61 61 NNE 6 9 29.96 1015 10 16 0.00 0.00
11:53 am 11:53 Sunny 91 32.8 71 21.7 52 52 NE 8 13 29.95 1014 10 16 0.00 0.00
12:53 pm 12:53 Sunny 92 33.3 68 20 46 46 NNE 5 7 29.94 1014 10 16 0.00 0.00
1:53 pm 13:53 Sunny 93 33.9 69 20.6 46 46 VRB 5 7 29.92 1013 10 16 0.00 0.00
2:53 pm 14:53 Sunny 93 33.9 70 21.1 47 47 ESE 7 11 29.90 1013 10 16 0.00 0.00
3:53 pm 15:53 Sunny 93 33.9 71 21.7 49 49 E 8 13 29.88 1012 10 16 0.00 0.00
4:53 pm 16:53 Mostly Sunny 93 33.9 70 21.1 47 47 E 3 6 29.87 1011 10 16 0.00 0.00
5:53 pm 17:53 Cloudy 87 30.6 71 21.7 59 59 NNE 8 13 29.86 1011 10 16 0.00 0.00
6:53 pm 18:53 Cloudy 85 29.4 70 21.1 61 61 N 5 7 29.88 1012 10 16 0.00 0.00
7:53 pm 19:53 Cloudy 83 28.3 72 22.2 70 70 NW 3 6 29.89 1012 10 16 0.00 0.00
8:53 pm 20:53 Partly Cloudy 81 27.2 72 22.2 74 74 Calm 29.90 1013 10 16 0.00 0.00
9:53 pm 21:53 Cloudy 80 26.7 73 22.8 79 79 Calm 29.92 1013 10 16 0.00 0.00
10:53 pm 22:53 Mostly Cloudy 79 26.1 72 22.2 79 79 Calm 29.92 1013 10 16 0.00 0.00
11:53 pm 23:53 Clear 76 24.4 73 22.8 91 91 Calm 29.92 1013 10 16 0.00 0.00

Powered by AerisWeather